Change the Weather History Date:

Thursday, March 28, 2013

  Actual Average Record
Temperature  
Mean Temperature 66 °F -  
Max Temperature 71 °F 79 °F 86 °F (2011)
Min Temperature 60 °F 70 °F 60 °F (1978)
Growing Degree Days 16 (Base 50)    
Moisture  
Dew Point 48 °F    
Average Humidity 54    
Maximum Humidity 73    
Minimum Humidity 41    
Precipitation  
Precipitation 0.00 in - - ()
Sea Level Pressure  
Sea Level Pressure 30.21 in    
Wind  
Wind Speed 11 mph (NNE)    
Max Wind Speed 16 mph    
Max Gust Speed 24 mph    
Visibility 10 miles    
Events      
Averages and records for this station are not official NWS values.
T = Trace of Precipitation, MM = Missing Value Source: NWS Daily Summary

Daily Weather History Graph

Daily Weather History Graph

Search for Another Location

Airport or City:

Trip Planner

Search our weather history database for the weather conditions in past years. The results will help you decide how hot, cold, wet, or windy it might be!

Date:

Astronomy

Mar. 28, 2013 Rise Set
Actual Time 7:22 AM EDT 7:41 PM EDT
Civil Twilight 6:59 AM EDT 8:04 PM EDT
Nautical Twilight 6:32 AM EDT 8:30 PM EDT
Astronomical Twilight 6:06 AM EDT 8:57 PM EDT
Moon 9:15 PM EDT (3/28) 8:01 AM EDT (3/28)
Length of Visible Light 13h 04m
Length of Day
12h 19m
Full, 98% of the Moon is Illuminated
Mar 28
Full
Apr 3
Last Quarter
Apr 10
New
Apr 18
First Quarter
Apr 25
Full

Hourly Weather History & Observations

Time (EDT) Temp. Dew Point Humidity Pressure Visibility Wind Dir Wind Speed Gust Speed Precip Events Conditions
12:53 AM 62.1 °F 48.0 °F 60% 30.22 in 10.0 mi NNE 10.4 mph - N/A   Clear
1:53 AM 61.0 °F 45.0 °F 56% 30.21 in 10.0 mi NNE 9.2 mph - N/A   Clear
2:53 AM 61.0 °F 45.0 °F 56% 30.20 in 10.0 mi NNE 9.2 mph - N/A   Partly Cloudy
3:53 AM 62.1 °F 43.0 °F 50% 30.18 in 10.0 mi NNE 11.5 mph - N/A   Mostly Cloudy
4:53 AM 61.0 °F 46.0 °F 58% 30.18 in 8.0 mi NNE 13.8 mph 19.6 mph N/A   Clear
5:53 AM 60.1 °F 45.0 °F 57% 30.17 in 10.0 mi NNE 8.1 mph 18.4 mph N/A   Clear
6:03 AM 60.8 °F 46.4 °F 59% 30.18 in 10.0 mi NNE 9.2 mph - N/A   Clear
6:53 AM 60.1 °F 46.0 °F 60% 30.19 in 10.0 mi NNE 9.2 mph - N/A   Partly Cloudy
7:53 AM 61.0 °F 46.9 °F 60% 30.21 in 10.0 mi NE 11.5 mph - N/A   Partly Cloudy
8:53 AM 63.0 °F 46.0 °F 54% 30.23 in 10.0 mi NNE 13.8 mph 19.6 mph N/A   Partly Cloudy
9:53 AM 64.9 °F 46.0 °F 50% 30.25 in 10.0 mi NNE 15.0 mph - N/A   Partly Cloudy
10:53 AM 66.0 °F 48.0 °F 52% 30.26 in 10.0 mi NE 15.0 mph 21.9 mph N/A   Partly Cloudy
11:53 AM 68.0 °F 46.9 °F 47% 30.26 in 10.0 mi NNE 13.8 mph 20.7 mph N/A   Partly Cloudy
12:53 PM 69.1 °F 48.0 °F 47% 30.25 in 10.0 mi NE 15.0 mph - N/A   Clear
1:53 PM 70.0 °F 46.9 °F 44% 30.22 in 10.0 mi NNE 15.0 mph 24.2 mph N/A   Partly Cloudy
2:53 PM 69.1 °F 46.0 °F 44% 30.20 in 10.0 mi NNE 15.0 mph - N/A   Partly Cloudy
3:53 PM 70.0 °F 46.0 °F 42% 30.18 in 10.0 mi NNE 16.1 mph - N/A   Partly Cloudy
4:53 PM 71.1 °F 46.0 °F 41% 30.17 in 10.0 mi North 12.7 mph - N/A   Partly Cloudy
5:53 PM 70.0 °F 45.0 °F 41% 30.18 in 10.0 mi North 10.4 mph - N/A   Partly Cloudy
6:53 PM 68.0 °F 46.9 °F 47% 30.19 in 10.0 mi North 9.2 mph - N/A   Clear
7:53 PM 66.0 °F 48.9 °F 54% 30.20 in 7.0 mi North 8.1 mph - N/A   Clear
8:53 PM 64.9 °F 51.1 °F 61% 30.21 in 10.0 mi North 5.8 mph - N/A   Clear
9:53 PM 64.9 °F 54.0 °F 68% 30.23 in 10.0 mi ENE 4.6 mph - N/A   Clear
10:53 PM 64.0 °F 55.0 °F 73% 30.24 in 10.0 mi NNE 4.6 mph - N/A   Clear
11:53 PM 64.9 °F 55.9 °F 73% 30.24 in 10.0 mi NNE 8.1 mph - N/A   Clear